• In United Kingdom
  • List of Countries
  • For 7 days
  • Water Temperature
  • Satellite Maps
  • Weather Map
  • Weather Widgets
  • user-avatar
    Login

    Hourly Weather Leticia

    Today, 15 December, Friday

    Time Temperature Precipitation Wind Pressure Humidity
    00:00 +24°C° 0 mm 0 mps 750 mmHg 88%
    01:00 +24°C° 0 mm 0 mps 750 mmHg 89%
    02:00 +23°C° 0 mm 0 mps 750 mmHg 90%
    03:00 +23°C° 0 mm 0 mps 750 mmHg 91%
    04:00 +23°C° 0 mm 0 mps 750 mmHg 93%
    05:00 +26°C° 0 mm 1 mps 751 mmHg 89%
    06:00 +27°C° 0 mm 1 mps 751 mmHg 86%
    07:00 +28°C° 0 mm 1 mps 752 mmHg 82%
    08:00 +30°C° 0.4 mm 1 mps 751 mmHg 76%
    09:00 +32°C° 0.4 mm 1 mps 751 mmHg 69%
    10:00 +34°C° 0.4 mm 1 mps 751 mmHg 63%
    11:00 +35°C° 0.2 mm 1 mps 751 mmHg 57%
    12:00 +36°C° 0.2 mm 1 mps 750 mmHg 51%
    13:00 +37°C° 0.2 mm 1 mps 749 mmHg 45%
    14:00 +36°C° 0 mm 1 mps 749 mmHg 48%
    15:00 +33°C° 0 mm 0 mps 748 mmHg 50%
    16:00 +33°C° 0 mm 0 mps 748 mmHg 52%
    17:00 +31°C° 0.1 mm 0 mps 748 mmHg 59%
    18:00 +31°C° 0.1 mm 1 mps 748 mmHg 67%
    19:00 +29°C° 0.1 mm 1 mps 748 mmHg 74%
    20:00 +28°C° 0.2 mm 1 mps 749 mmHg 80%
    21:00 +27°C° 0.2 mm 1 mps 749 mmHg 86%
    22:00 +26°C° 0.2 mm 1 mps 750 mmHg 92%
    23:00 +26°C° 0 mm 1 mps 750 mmHg 94%

    Tomorrow, 16 December, Saturday

    Time Temperature Precipitation Wind Pressure Humidity
    00:00 +25°C° 0 mm 1 mps 750 mmHg 95%
    01:00 +25°C° 0 mm 1 mps 750 mmHg 96%
    02:00 +25°C° 0 mm 1 mps 750 mmHg 96%
    03:00 +25°C° 0 mm 1 mps 749 mmHg 96%
    04:00 +25°C° 0 mm 1 mps 749 mmHg 96%
    05:00 +25°C° 0 mm 1 mps 750 mmHg 94%
    06:00 +26°C° 0 mm 1 mps 750 mmHg 91%
    07:00 +26°C° 0 mm 1 mps 751 mmHg 88%
    08:00 +28°C° 0 mm 1 mps 751 mmHg 79%
    09:00 +30°C° 0 mm 1 mps 751 mmHg 70%
    10:00 +32°C° 0 mm 1 mps 751 mmHg 60%
    11:00 +34°C° 0 mm 1 mps 750 mmHg 54%
    12:00 +36°C° 0 mm 1 mps 749 mmHg 47%
    13:00 +39°C° 0 mm 1 mps 748 mmHg 41%
    14:00 +37°C° 0 mm 1 mps 748 mmHg 45%
    15:00 +36°C° 0 mm 1 mps 747 mmHg 49%
    16:00 +35°C° 0 mm 1 mps 747 mmHg 54%
    17:00 +33°C° 0 mm 1 mps 747 mmHg 60%
    18:00 +31°C° 0 mm 1 mps 747 mmHg 66%
    19:00 +29°C° 0 mm 1 mps 748 mmHg 72%
    20:00 +29°C° 0 mm 1 mps 749 mmHg 75%
    21:00 +28°C° 0 mm 1 mps 749 mmHg 78%
    22:00 +28°C° 0 mm 1 mps 750 mmHg 81%
    23:00 +27°C° 0 mm 1 mps 749 mmHg 84%

    Day after tomorrow, 17 December, Sunday

    Time Temperature Precipitation Wind Pressure Humidity
    00:00 +27°C° 0 mm 1 mps 749 mmHg 87%
    01:00 +26°C° 0 mm 1 mps 749 mmHg 90%
    02:00 +26°C° 0 mm 1 mps 749 mmHg 92%
    03:00 +26°C° 0 mm 1 mps 749 mmHg 93%
    04:00 +26°C° 0 mm 1 mps 749 mmHg 94%
    05:00 +24°C° 0 mm 0 mps 749 mmHg 91%
    06:00 +25°C° 0 mm 0 mps 750 mmHg 88%
    07:00 +25°C° 0 mm 0 mps 750 mmHg 85%
    08:00 +28°C° 0 mm 0 mps 751 mmHg 73%
    09:00 +33°C° 0 mm 1 mps 751 mmHg 62%
    10:00 +35°C° 0 mm 1 mps 751 mmHg 50%
    11:00 +35°C° 0 mm 1 mps 751 mmHg 50%
    12:00 +36°C° 0 mm 1 mps 750 mmHg 49%
    13:00 +36°C° 0 mm 1 mps 749 mmHg 48%
    14:00 +35°C° 0 mm 1 mps 748 mmHg 51%
    15:00 +35°C° 0 mm 1 mps 747 mmHg 55%
    16:00 +32°C° 0 mm 0 mps 747 mmHg 58%
    17:00 +30°C° 0 mm 0 mps 747 mmHg 64%
    18:00 +31°C° 0 mm 1 mps 748 mmHg 70%
    19:00 +29°C° 0 mm 1 mps 748 mmHg 76%
    20:00 +28°C° 0.7 mm 1 mps 749 mmHg 81%
    21:00 +28°C° 0.7 mm 1 mps 749 mmHg 85%
    22:00 +27°C° 0.7 mm 1 mps 750 mmHg 90%
    23:00 +27°C° 1.4 mm 1 mps 749 mmHg 92%

    18 December, Monday

    Time Temperature Precipitation Wind Pressure Humidity
    00:00 +26°C° 1.4 mm 1 mps 749 mmHg 94%
    01:00 +26°C° 1.4 mm 1 mps 749 mmHg 96%
    02:00 +26°C° 0.4 mm 1 mps 749 mmHg 96%
    03:00 +26°C° 0.4 mm 1 mps 749 mmHg 96%
    04:00 +24°C° 0.4 mm 0 mps 749 mmHg 97%
    05:00 +26°C° 0.4 mm 1 mps 749 mmHg 96%
    06:00 +26°C° 0.4 mm 1 mps 750 mmHg 96%
    07:00 +26°C° 0.4 mm 1 mps 751 mmHg 96%
    08:00 +25°C° 0.5 mm 0 mps 751 mmHg 93%
    09:00 +26°C° 0.5 mm 0 mps 751 mmHg 89%
    10:00 +27°C° 0.5 mm 0 mps 751 mmHg 86%
    11:00 +28°C° 1.5 mm 0 mps 750 mmHg 86%
    12:00 +28°C° 1.5 mm 0 mps 750 mmHg 85%
    13:00 +29°C° 1.5 mm 0 mps 749 mmHg 85%
    14:00 +28°C° 1.1 mm 0 mps 749 mmHg 87%
    15:00 +28°C° 1.1 mm 0 mps 748 mmHg 88%
    16:00 +27°C° 1.1 mm 0 mps 748 mmHg 89%
    17:00 +26°C° 0.2 mm 0 mps 749 mmHg 92%
    18:00 +25°C° 0.2 mm 0 mps 749 mmHg 94%
    19:00 +24°C° 0.2 mm 0 mps 750 mmHg 96%
    20:00 +24°C° 0.2 mm 0 mps 750 mmHg 96%
    21:00 +24°C° 0.2 mm 0 mps 751 mmHg 96%
    22:00 +24°C° 0.2 mm 0 mps 751 mmHg 96%
    23:00 +23°C° 0 mm 0 mps 751 mmHg 96%

    19 December, Tuesday

    Time Temperature Precipitation Wind Pressure Humidity
    00:00 +23°C° 0 mm 0 mps 750 mmHg 97%
    01:00 +23°C° 0 mm 0 mps 750 mmHg 97%
    02:00 +23°C° 0.1 mm 0 mps 750 mmHg 97%
    03:00 +23°C° 0.1 mm 0 mps 750 mmHg 98%
    04:00 +25°C° 0.1 mm 1 mps 750 mmHg 98%
    05:00 +25°C° 1 mm 1 mps 750 mmHg 98%
    06:00 +25°C° 1 mm 1 mps 751 mmHg 98%
    07:00 +25°C° 1 mm 1 mps 752 mmHg 98%
    08:00 +25°C° 1.9 mm 1 mps 752 mmHg 97%
    09:00 +26°C° 1.9 mm 1 mps 752 mmHg 97%
    10:00 +26°C° 1.9 mm 1 mps 752 mmHg 97%
    11:00 +26°C° 0.9 mm 1 mps 752 mmHg 96%
    12:00 +26°C° 0.9 mm 1 mps 751 mmHg 94%
    13:00 +26°C° 0.9 mm 1 mps 750 mmHg 93%
    14:00 +27°C° 0.1 mm 1 mps 750 mmHg 89%
    15:00 +27°C° 0.1 mm 1 mps 749 mmHg 85%
    16:00 +26°C° 0.1 mm 0 mps 749 mmHg 81%
    17:00 +25°C° 0.1 mm 0 mps 749 mmHg 86%
    18:00 +24°C° 0.1 mm 0 mps 750 mmHg 90%
    19:00 +23°C° 0.1 mm 0 mps 751 mmHg 94%
    20:00 +23°C° 0.2 mm 0 mps 751 mmHg 95%
    21:00 +23°C° 0.2 mm 0 mps 752 mmHg 95%
    22:00 +23°C° 0.2 mm 0 mps 752 mmHg 95%
    23:00 +22°C° 0.2 mm 0 mps 752 mmHg 96%

    20 December, Wednesday

    Time Temperature Precipitation Wind Pressure Humidity
    00:00 +22°C° 0.2 mm 0 mps 751 mmHg 96%
    01:00 +22°C° 0.2 mm 0 mps 751 mmHg 97%
    02:00 +22°C° 0.2 mm 0 mps 750 mmHg 97%
    03:00 +22°C° 0.2 mm 0 mps 750 mmHg 97%
    04:00 +22°C° 0.2 mm 0 mps 750 mmHg 97%
    05:00 +22°C° 0.2 mm 0 mps 751 mmHg 96%
    06:00 +23°C° 0.2 mm 0 mps 751 mmHg 95%
    07:00 +23°C° 0.2 mm 0 mps 752 mmHg 94%
    08:00 +24°C° 0.1 mm 0 mps 752 mmHg 92%
    09:00 +25°C° 0.1 mm 0 mps 752 mmHg 89%
    10:00 +26°C° 0.1 mm 0 mps 752 mmHg 86%
    11:00 +27°C° 0.1 mm 0 mps 751 mmHg 81%
    12:00 +28°C° 0.1 mm 0 mps 750 mmHg 76%
    13:00 +29°C° 0.1 mm 0 mps 749 mmHg 70%
    14:00 +31°C° 0.5 mm 1 mps 748 mmHg 71%
    15:00 +31°C° 0.5 mm 1 mps 748 mmHg 71%
    16:00 +32°C° 0.5 mm 1 mps 747 mmHg 71%
    17:00 +30°C° 0.4 mm 1 mps 748 mmHg 79%
    18:00 +28°C° 0.4 mm 1 mps 748 mmHg 87%
    19:00 +26°C° 0.4 mm 1 mps 749 mmHg 94%
    20:00 +24°C° 0 mm 0 mps 749 mmHg 95%
    21:00 +23°C° 0 mm 0 mps 750 mmHg 96%
    22:00 +23°C° 0 mm 0 mps 750 mmHg 97%
    23:00 +23°C° 0.2 mm 0 mps 750 mmHg 97%
    Show more